Location: Kosice
(48.7167°N, 21.2500°E)
Time: 09:02:03
(UTC+01:00)

ISS - Pass Details

Date: 31 January 2021
Orbit: 417 x 422 km, 51.6° (Epoch: 05 March)

Event Time Altitude Azimuth Distance (km) Brightness Sun altitude
Rises 18:03:36 0° 289° (WNW) 2,376 1.2 -15.3°
Reaches altitude 10° 18:05:42 10° 291° (WNW) 1,510 0.0 -15.6°
Maximum altitude 18:09:06 75° 17° (NNE) 441 -3.8 -16.2°
Enters shadow 18:10:07 42° 94° (E) 621 -3.4 -16.3°
